Weather in Jurbarkas

Lithuania     55°04′49″N   22°45′31″E
temp.,
°C
wind,
m/s
gust,
m/s
humid.,
%
clouds,
%
prec.,
mm/h
press.,
hPa
HPBL,
m
27 february, sat
sat2723:00+2w5129359 0.0 1018410
02:00+2wnw499246 0.0 1019269
05:00+2wnw5129057 0.0 1019400
08:00+1nw5128829 0.0 1022449
11:00+4nnw611770 0.0 1024728
14:00+6nw610670 0.0 10261052
17:00+5nw511700 0.0 1027679
20:00+1nw410810 0.0 1028260
28 february, sun
sun2823:000wnw48920 0.0 1029266
02:00+1wnw489231 0.0 1030270
05:00+1wnw399284 0.0 1028258
08:00+1w498891 0.0 1027272
11:00+5wnw6118070 0.0 1026480
14:00+7nw6107266 0.0 10261081
17:00+6nw498189 0.0 1026549
20:00+3nw389157 0.0 1028189
1 march, mon
mon123:00+1nw23930 0.0 102940
02:00+1wnw23950 0.0 103159
05:000wnw35950 0.0 1030130
08:00+1wnw36940 0.0 1031135
11:00+7wnw49750 0.0 1031474
14:00+9w59670 0.0 1030575
17:00+7w613730 0.0 1028574
20:00+4w6148524 0.0 1028502
2 march, tue
tue223:00+3w5129330 0.0 1029387
02:00+1w499639 0.0 1030237
05:000w359618 0.0 1029125
08:00+1w359611 0.0 1029133
11:00+5w35820 0.0 1029302
14:00+8w57740 0.0 1029552
17:00+6w58810 0.0 1028470
20:00+3wnw579226 0.0 1029415
3 march, wed
wed323:00+2wnw3491100 0.0 1029338
02:00+1wnw239588 0.0 1029133
05:00+1w239675 0.0 1029120
08:000w249563 0.0 1029162
11:00+3wsw238462 0.0 1029367
14:00+4sw347977 0.0 1027509
17:00+3wsw348594 0.0 1025515
20:00+3sw228897 0.0 1023103